Flag for U.S.A. Weather past 2 weeks in Pontiac, Michigan, U.S.A.

Now
29 °F

Overcast.


Feels Like: 22 °F
Forecast: 28 / 40 °F
Wind: 7 mph from Southeast

Location: Oakland County International Airport

Current Time: Dec 22, 2014 at 12:10:06 AM

Latest Report: Dec 21, 2014 at 10:53 PM


Visibility: 7 mi

Pressure: 30.22 "Hg

Humidity: 79%

Dew point: 23 °F

Location of PontiacLocation

Historic Weather in Pontiac — Graph

°F

Pontiac temperature yesterday

Maximum temperature yesterday: 33 °F (at 1:53 PM)
Minimum temperature yesterday: 21 °F (at 2:53 AM)
Average temperature yesterday: 28 °F

Past Weeks' High & Low Weather Summary

 TemperatureHumidityPressure
High48 °F (Dec 14, 1:53 PM)97% (Dec 13, 6:53 PM)30.72 "Hg (Dec 13, 6:53 PM)
Low18 °F (Dec 20, 1:53 AM)32% (Dec 7, 1:53 PM)29.65 "Hg (Dec 16, 12:01 PM)
Average32 °F79%30.16 "Hg
* Reported Dec 6 10:53 PM — Dec 21 10:53 PM, Pontiac, Weather by CustomWeather, © 2014

Note: Actual official high and low records may vary slightly from our data, if they occured in-between our weather recording intervals... More about our weather records

Advertising

Pontiac weather history for previous 24 hours

 ConditionsComfort  
Time TempWeatherWind HumidityBarometerVisibility
10:53 PM
Dec 21
29 °FOvercast.7 mph79%30.22 "Hg7 mi
9:53 PM29 °FOvercast.8 mph79%30.22 "Hg8 mi
8:53 PM29 °FOvercast.8 mph75%30.23 "Hg8 mi
7:53 PM30 °FOvercast.9 mph72%30.23 "Hg8 mi
6:53 PM30 °FOvercast.10 mph75%30.24 "Hg8 mi
5:53 PM31 °FOvercast.7 mph69%30.24 "Hg9 mi
4:53 PM32 °FOvercast.9 mph69%30.24 "Hg9 mi
3:53 PM33 °FOvercast.8 mph66%30.24 "Hg8 mi
2:53 PM33 °FOvercast.9 mph66%30.23 "Hg9 mi
1:53 PM33 °FOvercast.6 mph63%30.24 "Hg9 mi
12:53 PM32 °FOvercast.8 mph66%30.27 "Hg9 mi
11:53 AM31 °FOvercast.7 mph69%30.29 "Hg8 mi
10:53 AM30 °FOvercast.8 mph72%30.32 "Hg9 mi
9:53 AM28 °FOvercast.5 mph81%30.31 "Hg8 mi
8:53 AM28 °FMore clouds than sun.6 mph81%30.30 "Hg7 mi
7:53 AM27 °FMostly cloudy.3 mph85%30.31 "Hg8 mi
6:53 AM26 °FMostly cloudy.No wind88%30.32 "Hg7 mi
5:53 AM25 °FIce fog.No wind88%30.31 "Hg6 mi
4:53 AM24 °FIce fog.No wind88%30.30 "Hg6 mi
3:53 AM23 °FIce fog.No wind92%30.31 "Hg6 mi
2:53 AM21 °FIce fog.No wind88%30.30 "Hg6 mi
1:53 AM23 °FClear.No wind85%30.29 "Hg8 mi
12:53 AM26 °FOvercast.No wind77%30.29 "Hg9 mi
Weather by CustomWeather, © 2014

See weather overviewHow to use our weather pages